Le nostre stazioni meteo in Italia

Pubblicità
Il mio iltempo24.it
Firenze, Italia (16171): Temperatura & dewpoint: 20.08.2019 12:00:00 - 26.08.2019 12:00:00 (CEST)Firenze, Italia (16171): reduced air pressure: 20.08.2019 12:00:00 - 26.08.2019 12:00:00 (CEST)
Data & Tempo tt [°C] td [°C] ppp [hPa]
26.08.2019 12:00:00 - - -
26.08.2019 11:00:00 27,8 24,6 1017,4
26.08.2019 10:00:00 24,7 23,4 1017,6
26.08.2019 09:00:00 22,7 21,8 1017,7
26.08.2019 08:00:00 20,9 20,5 1017,6
26.08.2019 07:00:00 20,3 19,9 1017,4
26.08.2019 06:00:00 20,5 20,0 1017,2
26.08.2019 05:00:00 20,6 19,9 1017,1
26.08.2019 04:00:00 21,2 20,3 1017,2
26.08.2019 03:00:00 22,1 21,2 1017,2
26.08.2019 02:00:00 22,5 21,4 1017,4
26.08.2019 01:00:00 22,9 21,5 1017,3
26.08.2019 00:00:00 23,8 22,2 1017,6
25.08.2019 23:00:00 24,5 21,6 1017,6
25.08.2019 22:00:00 26,1 21,3 1017,1
25.08.2019 21:00:00 27,7 21,9 1016,6
25.08.2019 20:00:00 28,5 22,4 1016,2
25.08.2019 19:00:00 29,3 22,0 1016,0
25.08.2019 18:00:00 29,6 22,5 1015,9
25.08.2019 17:00:00 29,4 22,3 1015,8
25.08.2019 16:00:00 30,2 22,6 1016,1
25.08.2019 15:00:00 30,8 22,9 1015,8
25.08.2019 14:00:00 32,0 23,8 1015,9
25.08.2019 13:00:00 30,3 24,6 1016,5
25.08.2019 12:00:00 27,5 23,9 1017,2
25.08.2019 11:00:00 25,4 22,8 1017,7
25.08.2019 10:00:00 23,9 22,3 1017,7
25.08.2019 09:00:00 22,5 21,4 1017,4
25.08.2019 08:00:00 20,5 19,6 1017,2
25.08.2019 07:00:00 20,5 19,3 1017,1
25.08.2019 06:00:00 21,0 19,8 1017,0
25.08.2019 05:00:00 21,0 19,4 1017,0
25.08.2019 04:00:00 21,8 19,7 1017,0
25.08.2019 03:00:00 23,0 19,9 1017,1
25.08.2019 02:00:00 23,5 19,8 1017,5
25.08.2019 01:00:00 24,4 19,4 1017,6
25.08.2019 00:00:00 25,2 19,7 1017,8
24.08.2019 23:00:00 25,0 19,3 1017,5
24.08.2019 22:00:00 26,2 20,0 1017,0
24.08.2019 21:00:00 27,5 20,8 1017,1
24.08.2019 20:00:00 29,3 21,7 1016,5
24.08.2019 19:00:00 30,5 21,0 1016,2
24.08.2019 18:00:00 30,7 20,6 1016,4
24.08.2019 17:00:00 30,6 20,5 1016,6
24.08.2019 16:00:00 30,4 21,2 1017,2
24.08.2019 15:00:00 29,4 21,0 1017,7
24.08.2019 14:00:00 27,3 21,8 1018,5
24.08.2019 13:00:00 27,0 23,6 1018,7
24.08.2019 12:00:00 24,1 21,2 1019,6
24.08.2019 11:00:00 23,4 22,3 1020,2
24.08.2019 10:00:00 22,4 22,2 1019,6
24.08.2019 09:00:00 21,6 21,5 1019,5
24.08.2019 08:00:00 21,5 21,3 1019,6
24.08.2019 07:00:00 21,9 21,5 1019,3
24.08.2019 06:00:00 22,0 21,6 1018,5
24.08.2019 05:00:00 21,6 21,4 1018,7
24.08.2019 04:00:00 21,5 21,1 1018,5
24.08.2019 03:00:00 21,8 21,4 1018,6
24.08.2019 02:00:00 22,1 21,5 1018,7
24.08.2019 01:00:00 22,6 22,0 1019,0
24.08.2019 00:00:00 23,1 22,2 1019,1
23.08.2019 23:00:00 24,0 22,9 1019,2
23.08.2019 22:00:00 23,8 22,5 1019,5
23.08.2019 21:00:00 24,4 23,1 1019,6
23.08.2019 20:00:00 24,0 23,4 1018,8
23.08.2019 19:00:00 23,5 22,8 1018,6
23.08.2019 18:00:00 23,6 22,9 1018,8
23.08.2019 17:00:00 24,0 21,8 1019,7
23.08.2019 16:00:00 23,0 20,5 1019,3
23.08.2019 15:00:00 29,0 23,8 1018,5
23.08.2019 14:00:00 30,2 23,8 1019,0
23.08.2019 13:00:00 28,5 22,4 1019,4
23.08.2019 12:00:00 27,9 21,9 1019,4
23.08.2019 11:00:00 27,3 21,5 1019,5
23.08.2019 10:00:00 26,6 21,1 1019,5
23.08.2019 09:00:00 24,6 20,4 1019,8
23.08.2019 08:00:00 23,2 20,1 1019,3
23.08.2019 07:00:00 22,9 22,5 1019,0
23.08.2019 06:00:00 23,2 22,6 1018,4
23.08.2019 05:00:00 25,2 23,6 1018,7
23.08.2019 04:00:00 25,1 22,9 1018,6
23.08.2019 03:00:00 25,4 23,2 1018,4
23.08.2019 02:00:00 25,6 23,4 1019,0
23.08.2019 01:00:00 25,7 23,3 1019,1
23.08.2019 00:00:00 25,5 23,5 1018,7
22.08.2019 23:00:00 25,5 23,9 1018,4
22.08.2019 22:00:00 25,6 24,0 1018,7
22.08.2019 21:00:00 26,1 24,5 1019,1
22.08.2019 20:00:00 26,4 24,6 1018,7
22.08.2019 19:00:00 27,0 23,8 1017,8
22.08.2019 18:00:00 27,8 24,2 1018,2
22.08.2019 17:00:00 28,6 24,5 1017,0
22.08.2019 16:00:00 30,2 23,1 1017,5
22.08.2019 15:00:00 32,4 24,4 1017,4
22.08.2019 14:00:00 31,4 24,0 1018,1
22.08.2019 13:00:00 30,1 23,5 1018,5
22.08.2019 12:00:00 29,5 23,2 1018,8
22.08.2019 11:00:00 29,9 23,8 1018,7
22.08.2019 10:00:00 28,7 23,8 1018,7
22.08.2019 09:00:00 26,5 23,5 1018,4
22.08.2019 08:00:00 24,8 22,8 1018,3
22.08.2019 07:00:00 23,7 21,3 1018,0
22.08.2019 06:00:00 24,0 20,7 1017,4
22.08.2019 05:00:00 25,1 21,7 1017,3
22.08.2019 04:00:00 24,7 21,2 1017,3
22.08.2019 03:00:00 25,4 21,0 1017,5
22.08.2019 02:00:00 25,8 21,0 1017,8
22.08.2019 01:00:00 26,3 21,0 1018,0
22.08.2019 00:00:00 27,6 21,8 1017,8
21.08.2019 23:00:00 28,9 22,8 1017,2
21.08.2019 22:00:00 29,9 23,1 1017,0
21.08.2019 21:00:00 31,0 22,0 1016,3
21.08.2019 20:00:00 32,7 21,9 1015,3
21.08.2019 19:00:00 33,8 21,3 1014,7
21.08.2019 18:00:00 34,3 21,0 1015,1
21.08.2019 17:00:00 34,6 20,6 1015,2
21.08.2019 16:00:00 35,0 20,9 1015,6
21.08.2019 15:00:00 35,6 21,5 1016,1
21.08.2019 14:00:00 33,6 18,5 1016,7
21.08.2019 13:00:00 32,7 18,8 1017,3
21.08.2019 12:00:00 30,6 20,5 1017,7
21.08.2019 11:00:00 28,6 20,6 1018,0
21.08.2019 10:00:00 25,8 19,8 1018,2
21.08.2019 09:00:00 24,2 19,4 1018,4
21.08.2019 08:00:00 22,2 18,9 1018,3
21.08.2019 07:00:00 20,6 17,5 1018,0
21.08.2019 06:00:00 21,3 17,4 1017,6
21.08.2019 05:00:00 21,8 17,7 1017,4
21.08.2019 04:00:00 22,4 17,5 1017,2
21.08.2019 03:00:00 23,5 18,1 1017,4
21.08.2019 02:00:00 23,8 18,2 1017,3
21.08.2019 01:00:00 24,6 18,0 1017,5
21.08.2019 00:00:00 25,1 17,5 1017,5
20.08.2019 23:00:00 26,1 17,9 1017,4
20.08.2019 22:00:00 28,4 18,7 1017,1
20.08.2019 21:00:00 29,7 18,8 1016,5
20.08.2019 20:00:00 31,7 20,0 1015,8
20.08.2019 19:00:00 33,6 23,0 1015,0
20.08.2019 18:00:00 34,6 20,6 1014,9
20.08.2019 17:00:00 34,9 20,1 1015,2
20.08.2019 16:00:00 35,5 20,3 1015,4
20.08.2019 15:00:00 35,7 21,2 1015,9
20.08.2019 14:00:00 34,3 22,1 1016,6
20.08.2019 13:00:00 32,5 21,4 1017,2
20.08.2019 12:00:00 29,6 20,7 1017,6

tt = Temperatura
td = dewpoint
ppp = reduced air pressure

Stazioni seguenti

WeatherPro
AMSI
MeteoEarth